12:37
Airports
History
Links
Donate
Help keep this website running!
PayPal
Bitcoin
This page is community maintained. The information is intended for PC simulator navigation or reference.
Always use approved charts for navigation.
EPWR
STRACHOWICE
STRACHOWICE (EPWR)
Wroclaw, Dolnoslaskie, Poland (53)
(C)
Lat/Lng:51° 6' 13.98" N / 16° 52' 54.81" E
51.103882 / 16.881892
Elevation:404'ft / 123mMSL
ID / ICAO:EPWR
Runways:1
Longest:12-30
Concrete 2,495m / 8,184ft
Controlled:Yes
METAR12:30 GMT 2018-01-20
Altimeter: 29.74
Visibility: 6.2 statute miles
Wind: 3 knots (from 160°)
Temp: 4°c / 39°f
Humidity: %

METAR: EPWR 201230Z 16003KT 130V220 9999 FEW020CB SCT040 04/M00 Q1007

(Powered by phpweather)
Airport Radio Frequencies
Tower: 127.22
Nearby VORs <50NM
Nearby NDBs
Runway 12 / 30
Dimensions:2494.5 x 60.1m 8184' x 197'ft
Surface:Concrete
Edge Lights:Medium intensity
Runway 12 [A]Runway 30 [B]
Heading:116°TH 296°TH
Lat:
Lng:
51° 6' 31.69"N
16° 51' 56.97"E
51° 5' 56.26"N
16° 53' 52.65"E
ALS:SALSCalvert
User Notes and Comments
51° 6' 13.98" N / 16° 52' 54.81" E
Distance To
Airport ID:
Nearby Airports
(U) LEGNICA 31.0 NM
EPLE W 280°
(U) LUBIN 36.9 NM
EPLU NW 306°
(C) Broumov 44.2 NM
LKBR SSW 212°
(C) Velke Porici 53.0 NM
LKVP SSW 213°
(C) Mikulovice 58.3 NM
LKMI SSE 161°
(C) Nove Mesto 61.2 NM
LKNM SSW 213°
(C) Vrchlabi 63.3 NM
LKVR WSW 238°
VFR Chart
Flight Planning at SkyVector.com